Regional Weather Roundup
Issued by NWS Sioux Falls, SD

Home | Current Version | Previous Version | Text Only | Print | Product List | Glossary On
Versions: 1 2 3 4 5 6 7 8 9 10 11 12 13 14 15 16 17 18 19 20 21 22 23 24 25 26 27 28 29 30 31 32 33 34 35 36 37 38 39 40 41 42 43 44 45 46 47 48 49 50
000
ASUS43 KFSD 031902
RWRFSD

WEATHER ROUNDUP FOR SE SOUTH DAKOTA/SW MINNESOTA/NW IOWA
NATIONAL WEATHER SERVICE SIOUX FALLS SD
100 PM CST SAT DEC 03 2016

NOTE: "FAIR" INDICATES FEW OR NO CLOUDS BELOW 12,000 FEET WITH NO
SIGNIFICANT WEATHER AND OR OBSTRUCTIONS TO VISIBILITY.


SDZ038>040-050-052>070-032000-
SOUTHEAST SOUTH DAKOTA

CITY           SKY/WX    TMP DP  RH WIND       PRES   REMARKS
CHAMBERLAIN    CLOUDY    38  35  89 S13       29.99F
HURON          MIX PCPN  32  31  96 S15       30.05F FOG     WCI  22
MADISON        FAIR      32  32 100 S13       30.11F WCI  22
MITCHELL       LGT RAIN  33  32  96 SE12      30.09F FOG     WCI  24
SIOUX FALLS    NOT AVBL
WINNER         FAIR      45  29  53 S15G23    29.96
YANKTON        CLOUDY    36  28  75 S15       30.15F
$$

MNZ071-072-080-081-089-090-097-098-032000-
SOUTHWEST MINNESOTA

CITY           SKY/WX    TMP DP  RH WIND       PRES   REMARKS
FAIRMONT       SUNNY     34  26  72 S13       30.24S WCI  25
JACKSON        CLOUDY    32  28  86 S13       30.21F WCI  22
LUVERNE        CLOUDY    36  30  80 S18       30.17F
MARSHALL       MOSUNNY   35  28  75 S14       30.15F WCI  26
MONTEVIDEO     SUNNY     34  27  75 S9        30.18F WCI  26
PIPESTONE      CLOUDY    34  30  86 S14       30.12F WCI  24
REDWOOD FALLS  SUNNY     33  24  69 SE12      30.20F WCI  24
TRACY          PTSUNNY   34  31  87 S13       30.16F WCI  25
WINDOM         PTSUNNY   36  28  75 S12G18    30.19F
WORTHINGTON    CLOUDY    34  30  85 S16       30.18F WCI  24
$$

IAZ001>003-012>014-020>022-031-032-NEZ013-014-SDZ071-032000-
NORTHWEST IOWA

CITY           SKY/WX    TMP DP  RH WIND       PRES   REMARKS
CHEROKEE       CLOUDY    37  32  82 S9        30.23S
DENISON        CLOUDY    36  30  80 S10       30.22F
ESTHERVILLE    PTSUNNY   35  31  85 S12       30.22F WCI  27
LE MARS        MOSUNNY   36  30  80 S17G23    30.21F
ORANGE CITY    CLOUDY    36  32  87 S17G23    30.20F
SHELDON        CLOUDY    37  34  87 S17       30.18F
SIOUX CITY     LGT SNOW  36  32  85 S10       30.23F FOG
SPENCER        CLOUDY    37  31  78 S20       30.21F
STORM LAKE     CLOUDY    36  32  87 S14       30.22F
$$

ABBREVIATIONS USED IN REMARKS
   TC - TEMPERATURE IN CELSIUS
  WCI - WIND CHILL INDEX
   HX - HEAT INDEX
  VSB - VISIBILITY





USA.gov is the U.S. government's official web portal to all federal, state and local government web resources and services.